This is the latest recevied weather packets stored in our database for station/object KB1JDX. If no packets are shown the sender has not sent any weather packets the latest 10 day(s).
| Time | Temp. | Humidity | Pressure | Rain* | Wind** | Luminosity | Snow |
|---|---|---|---|---|---|---|---|
| 1777647632 | 12.22° C | 60% | 1010.8 hPa | 0 mm | 0 m/s | - | - |
| 1777646432 | 11.11° C | 65% | 1011 hPa | 0 mm | 1.79 m/s, 305° | - | - |
| 1777645230 | 10.56° C | 67% | 1011.1 hPa | 0 mm | 0 m/s | - | - |
| 1777645166 | 10.56° C | 67% | 1011.2 hPa | 0 mm | 0 m/s | - | - |
| 1777644030 | 10° C | 67% | 1011.1 hPa | 0 mm | 0 m/s | - | - |
| 1777642830 | 9.44° C | 67% | 1011.1 hPa | 0 mm | 0 m/s | - | - |
| 1777641630 | 10° C | 68% | 1010.9 hPa | 0 mm | 0 m/s | - | - |
| 1777641565 | 10° C | 67% | 1010.8 hPa | 0 mm | 0 m/s | - | - |
| 1777639230 | 10° C | 64% | 1010.6 hPa | 0 mm | 0 m/s | - | - |
| 1777637965 | 8.89° C | 50% | 1010.7 hPa | 0 mm | 0 m/s | - | - |
| 1777636830 | 7.22° C | 21% | 1010.6 hPa | 0 mm | 0 m/s | - | - |
| 1777635630 | 6.11° C | 7% | 1010.6 hPa | 0 mm | 0 m/s | - | - |
| 1777634430 | 5° C | 10% | 1010.4 hPa | 0 mm | 0 m/s | - | - |
| 1777634366 | 5° C | 10% | 1010.4 hPa | 0 mm | 0 m/s | - | - |
| 1777633231 | 3.89° C | 17% | 1010.3 hPa | 0 mm | 0 m/s | - | - |
| 1777632031 | 3.89° C | 23% | 1010 hPa | 0 mm | 0 m/s | - | - |
| 1777630830 | 3.89° C | 26% | 1009.8 hPa | 0 mm | 0 m/s | - | - |
| 1777630765 | 3.89° C | 26% | 1009.9 hPa | 0 mm | 0 m/s | - | - |
| 1777629630 | 3.89° C | 28% | 1009.7 hPa | 0 mm | 0 m/s | - | - |
| 1777628431 | 4.44° C | 30% | 1009.5 hPa | 0 mm | 0 m/s | - | - |
| 1777627230 | 4.44° C | 33% | 1009.4 hPa | 0 mm | 0 m/s | - | - |
| 1777627166 | 4.44° C | 34% | 1009.4 hPa | 0 mm | 0 m/s | - | - |
| 1777626030 | 5° C | 38% | 1009.2 hPa | 0 mm | 0 m/s | - | - |
| 1777624830 | 5.56° C | 41% | 1009.1 hPa | 0 mm | 0 m/s | - | - |
| 1777623630 | 6.11° C | 42% | 1009 hPa | 0 mm | 0 m/s | - | - |
* Rain latest hour (hover to see other rain measurements)
** Current wind speed in m/s (hover to see current wind gust speed)